Regional Weather Roundup
Issued by NWS

Home | Current Version | Previous Version | Graphics & Text | Print | Product List | Glossary On
Versions: 1 2 3 4 5 6 7 8 9 10 11 12 13 14 15 16 17 18 19 20 21 22 23 24 25 26 27 28 29 30 31 32 33 34 35 36 37 38 39 40 41 42 43 44 45 46 47 48 49 50
000
ASUS43 KMKX 220221
RWRWI

WISCONSIN REGIONAL WEATHER ROUNDUP
NATIONAL WEATHER SERVICE MILWAUKEE/SULLIVAN WI
900 PM CDT TUE OCT 21 2014

NOTE: "FAIR" INDICATES FEW OR NO CLOUDS BELOW 12,000 FEET WITH NO
SIGNIFICANT WEATHER AND/OR OBSTRUCTIONS TO VISIBILITY.

WIZ001-002-006>008-014>016-023>028-220300-
NORTHWEST WISCONSIN

CITY           SKY/WX    TMP DP  RH WIND       PRES   REMARKS
SUPERIOR ARPT  CLEAR     40  37  86 E6        30.22R
ASHLAND        CLEAR     37  36  96 E3        30.24R
HAYWARD        CLEAR     44  35  70 SE5       30.21R
SIREN          CLEAR     38  33  83 CALM      30.20R
CUMBERLAND     CLEAR     43  34  70 SE8       30.20R
RICE LAKE      CLEAR     44  36  72 SE7       30.22R
CHETEK         CLEAR     43  36  75 E7        30.22R
LADYSMITH      CLEAR     43  35  73 SE5       30.25R
EAU CLAIRE     CLEAR     45  35  68 E8        30.22R
MENOMONIE      CLEAR     43  35  73 SE6       30.22R
NEW RICHMOND   CLEAR     43  35  73 SE3       30.19R
OSCEOLA        CLEAR     41  37  83 E8        30.21R
$$

WIZ003>005-009-010-017-018-220300-
NORTH CENTRAL WISCONSIN

CITY           SKY/WX    TMP DP  RH WIND       PRES   REMARKS
MANITOWISH WTR   N/A     30  30 100 CALM      30.24R FOG
ARBOR VITAE    CLEAR     33  31  95 CALM      30.25R
WOODRUFF       CLEAR     33  31  95 CALM      30.25R
RHINELANDER    CLEAR     33  31  92 CALM      30.25R
EAGLE RIVER      N/A     30  30 100 CALM      30.25R FOG
LAND O LAKES   CLEAR     30  30  99 CALM      30.25R
PHILLIPS       CLEAR     34  32  91 CALM      30.23R
TOMAHAWK       CLEAR     31  30  96 CALM      30.25R
MEDFORD        CLEAR     35  33  93 SE3       30.24R
MERRILL          N/A     32  31  95 CALM      30.25R FOG
$$

WIZ029-030-035-036-043>047-220300-
CENTRAL WISCONSIN

CITY           SKY/WX    TMP DP  RH WIND       PRES   REMARKS
WAUSAU         CLEAR     40  34  79 E6        30.25R
MOSINEE        CLEAR     41  34  75 SE3       30.26R
MARSHFIELD     CLEAR     41  34  76 CALM      30.24R
STEVENS POINT  CLEAR     34  32  91 CALM      30.27R
WAUPACA        CLEAR     38  34  83 CALM      30.27R
WAUTOMA        PTCLDY    33  31  93 CALM      30.28R
WISC RAPIDS    CLEAR     36  33  89 CALM      30.27R
CAMP DOUGLAS   CLEAR     34  34 100 SE3       30.26R
$$

WIZ011>013-019>022-031-037>040-048>050-220300-
NORTHEAST WISCONSIN

CITY           SKY/WX    TMP DP  RH WIND       PRES   REMARKS
ANTIGO         CLEAR     37  31  79 SE5       30.27R WCI  33
SHAWANO        CLEAR     44  36  74 CALM      30.28R
OCONTO         CLEAR     34  34  99 CALM      30.29R
STURGEON BAY   CLEAR     39  30  70 N7        30.29R WCI  34
GREEN BAY      CLEAR     37  35  92 CALM      30.28R
MANITOWOC      CLEAR     36  35  96 CALM      30.29R
APPLETON       CLEAR     43  27  52 VRB5      30.27R
CLINTONVILLE   CLEAR     36  32  87 CALM      30.27R
OSHKOSH        CLEAR     44  36  73 SE3       30.26R
$$

WIZ032>034-041-042-053>061-220300-
SOUTHWEST WISCONSIN

CITY           SKY/WX    TMP DP  RH WIND       PRES   REMARKS
LA CROSSE      CLEAR     47  36  65 SE8       30.23R
SPARTA         CLEAR     36  33  89 E5        30.26R WCI  32
VIROQUA        CLEAR     42  36  80 E6        30.24R
BOSCOBEL       CLEAR     43  36  76 CALM      30.26R
PRAIRIE DU CHI CLEAR     45  36  70 E8        30.24R
PLATTEVILLE    CLEAR     39  36  86 E7        30.26R WCI  34
$$

WIZ056-057-062-063-064-067-068-220300-
SOUTH CENTRAL WISCONSIN

CITY           SKY/WX    TMP DP  RH WIND       PRES   REMARKS
REEDSBURG      CLEAR     37  34  88 CALM      30.26R
BARABOO/DELLS  CLEAR     35  32  90 CALM      30.26R
LONE ROCK      CLEAR     41  33  73 CALM      30.27R
MINERAL POINT  CLEAR     41  36  81 E6        30.25R
MADISON        CLEAR     36  33  89 CALM      30.27R
MIDDLETON      CLEAR     35  34  98 CALM      30.27R
WATERTOWN      CLEAR     33  33 100 CALM      30.27R
MONROE         CLEAR     41  36  81 NE5       30.25S
JANESVILLE     CLEAR     41  36  81 CALM      30.25R
$$

WIZ051-052-058>065-066-070>072-220300-
SOUTHEAST WISCONSIN

CITY           SKY/WX    TMP DP  RH WIND       PRES   REMARKS
MILWAUKEE      PTCLDY    45  35  68 NE10      30.27R
WAUKESHA       CLEAR     39  36  87 CALM      30.27R
MILWAUKEE/TIMM CLEAR     39  34  81 CALM      30.28R
RACINE         CLEAR     45  34  65 NE10      30.28R
BURLINGTON     CLEAR     32  32 100 SW3       30.27R
KENOSHA        CLEAR     40  36  86 N6        30.27R
FOND DU LAC    CLEAR     40  34  79 E6        30.27R
SHEBOYGAN      CLEAR     35  33  92 CALM      30.28R
WEST BEND      CLEAR     36  32  87 CALM      30.27R
JUNEAU         CLEAR     39  34  82 NE5       30.28R
$$

LSZ147-162-220300-
LAKE SUPERIOR

STATION/POSITION TIME  TEMP    WIND        PRES    WAVE
                       AIR SEA DIR/SP/G            HT/PER
                 (UTC) (F)     (DEG/KT/KT) (MB)    (FT/S)
W MID LAKE BUOY  0150   44 46  100/ 14/ 16 1025.1R   2/ 4
DEVILS ISLAND    0200   44     100/ 13/ 15 1025.0R
PORT WING        0100   41     100/  3/  6 1023.4
SAXON HARBOR     0100   37        CALM     1023.7
$$

LMZ867-665-643>646-220300-
LAKE MICHIGAN

STATION/POSITION TIME  TEMP    WIND        PRES    WAVE
                       AIR SEA DIR/SP/G            HT/PER
                 (UTC) (F)     (DEG/KT/KT) (MB)    (FT/S)
CHAMBERS ISLAND  0100   46      20/ 15/ 18 1025.4R
N MID LAKE BUOY  0150   46 51   40/ 12/ 14 1025.9R   2/ 4
NORTHPORT PIER   0100   45      20/ 11/ 14 1025.1S
SISTER BAY       0043           40/  6/  9   N/A
KEWAUNEE LAKESHO 0100   47      60/  6/  9 1024.0R
SHEBOYGAN LAKESH 0200   47 50   50/ 17/ 18 1025.8R
PORT WASHINGTON  0140   43     340/  3/  6 1025.7R
ATWATER BUOY     0200   49      30/ 16/ 19 1025.8R
MILWAUKEE LAKESH 0200   48      30/ 15/ 17   N/A
S MID LAKE BUOY  0150   49 54   10/ 14/ 17 1024.5R   5/ 6
KENOSHA   LAKESH 0200   49      40/ 13/ 19 1024.7R
$$

TC  - TEMPERATURE IN CELSIUS
VSB - VISIBILITY IN STATUTE MILES
WCI - WIND CHILL INDEX
HX  - HEAT INDEX




USA.gov is the U.S. government's official web portal to all federal, state and local government web resources and services.